Wind_Speed
14 17 16 16 14 14 17 17 16 16 16 20 20 16 15 16 16 17 16 15 15 16 14 15 15 14 14 13 12 11 11 13 15 13 13 14 15 13 14 13 12 13 14
19 18 19 17 16 17 19 18 15 15 19 23 21 11 17 16 18 18 17 19 19 19 17 18 18 16 15 15 13 13 13 15 16 17 17 18 18 20 20 14 14 15 21
18 20 18 20 19 19 20 20 18 16 16 16 16 17 15 16 18 17 18 17 17 16 19 14 16 15 14 15 15 15 17 17 17 18 20 20 22 21 23 24 24 22 21
21 21 19 23 22 20 20 20 19 17 15 15 14 13 14 15 16 15 15 15 15 15 15 16 15 15 16 16 17 17 19 18 19 20 21 22 24 24 26 29 29 28 23
22 23 26 27 24 21 21 21 21 19 19 18 16 16 17 17 17 17 17 17 16 16 16 16 15 17 18 18 19 19 20 21 23 23 24 26 27 29 31 32 32 30 23
29 32 25 21 26 21 22 23 22 21 22 22 21 21 21 21 21 20 21 20 19 18 19 19 19 19 21 20 21 21 22 23 25 26 26 29 30 31 29 32 28 27 28
29 28 24 28 24 21 26 25 24 23 24 23 24 26 25 24 25 24 24 24 23 21 22 22 22 21 23 24 26 23 25 26 28 28 29 30 31 32 31 34 34 33 28
30 25 25 31 32 30 28 24 24 28 27 27 27 27 27 27 26 27 28 27 24 25 25 25 25 27 24 27 27 28 28 30 31 29 30 31 31 33 34 38 34 28 30
33 30 26 36 33 36 33 31 27 27 30 29 28 29 28 28 30 29 30 31 27 26 27 27 29 27 29 30 28 30 29 33 34 33 32 32 33 33 33 30 31 35 38
26 35 33 32 29 35 35 34 33 30 32 28 27 26 27 30 32 36 35 33 29 28 29 29 32 30 31 32 33 33 35 33 36 36 36 36 37 38 37 38 40 42 42
29 29 30 31 30 34 37 36 35 33 32 31 32 35 32 31 33 36 33 33 32 29 28 29 32 32 31 32 35 34 35 33 35 40 41 42 45 46 44 43 43 45 43
27 30 33 31 32 34 35 36 34 32 34 36 35 35 37 38 35 36 34 33 32 29 29 31 34 34 34 37 38 36 39 38 40 41 44 45 46 46 49 50 52 51 53
28 28 29 32 36 38 34 32 33 34 34 36 36 35 36 37 39 40 37 32 34 35 35 34 33 33 33 33 36 39 39 40 40 42 40 45 52 52 52 53 52 51 52
27 28 27 26 31 35 36 35 33 32 31 34 37 40 42 42 41 40 40 35 37 37 35 34 37 37 32 37 44 42 43 50 51 46 42 41 41 43 43 48 53 52 47
25 26 26 25 26 29 31 34 35 34 32 30 32 36 35 40 35 35 31 35 38 36 35 39 41 34 40 39 45 43 40 41 40 31 37 37 43 45 48 39 36 36 30
25 25 26 27 27 28 30 32 32 31 29 28 26 27 27 26 29 33 36 38 37 36 38 45 40 32 41 43 43 36 26 30 28 35 36 40 39 40 30 30 31 28 28
26 26 25 26 28 28 28 30 29 31 31 30 30 27 25 25 25 28 32 38 41 44 48 44 49 47 43 36 32 30 30 33 36 37 31 26 25 29 24 24 25 27 28
25 26 25 27 26 28 29 29 31 32 31 32 32 32 32 32 27 28 31 37 40 42 42 43 43 41 32 28 28 32 36 31 23 22 23 21 21 23 24 24 27 30 32
25 26 26 27 27 27 30 31 29 28 28 29 30 31 31 31 31 29 25 26 30 43 38 32 44 27 28 30 27 26 29 23 18 19 21 22 21 21 24 27 29 32 35
25 27 28 29 28 29 29 30 28 25 25 25 24 24 27 26 29 24 22 29 25 33 32 29 25 16 10 11 12 12 13 14 15 17 17 19 21 23 26 30 33 36 40
28 30 29 28 29 28 29 27 25 22 23 24 23 23 22 22 23 24 27 22 26 34 35 26 14 10 11 13 14 15 15 15 17 19 21 21 23 27 31 34 38 42 46
28 29 29 27 27 27 28 31 23 26 22 22 21 22 22 20 21 24 26 28 23 14 10 9 10 11 12 12 13 15 17 18 20 21 21 25 27 30 34 37 41 46 51
28 27 27 26 23 28 27 31 30 26 21 25 24 26 25 20 19 19 15 11 10 8 8 10 13 13 14 16 18 19 20 23 23 24 26 28 32 35 39 43 47 51 53
28 28 28 30 29 25 29 28 27 28 29 26 24 30 26 22 18 14 11 11 12 15 12 12 13 15 18 19 22 23 23 23 25 25 29 32 37 41 44 47 51 53 51
27 26 28 31 30 26 35 34 30 31 34 33 34 29 22 22 23 21 14 11 12 11 11 13 15 16 18 21 20 23 24 23 27 31 34 38 42 44 48 51 52 52 52
24 27 31 35 37 32 30 37 38 41 45 36 34 20 13 11 9 9 10 11 10 11 13 15 16 18 20 24 25 26 28 30 32 36 39 41 45 48 51 51 51 48 47
Wind_Direction
236 247 239 231 221 226 234 240 237 233 266 264 235 224 235 247 254 263 267 270 275 278 275 273 284 285 284 280 283 281 278 277 280 283 285 280 292 287 288 281 287 292 286
218 222 244 240 234 227 240 245 244 237 229 245 251 251 239 246 258 264 268 273 278 277 280 280 280 282 284 285 283 287 287 281 281 285 283 285 295 298 294 297 293 287 287
225 219 230 242 237 231 234 244 246 243 244 241 243 242 247 253 257 261 265 269 274 274 268 286 277 279 279 282 286 289 292 293 289 288 291 296 295 295 295 296 299 297 292
237 232 220 236 237 235 233 235 239 240 244 254 254 254 248 246 248 251 258 265 268 272 275 277 279 285 283 285 287 290 291 291 289 289 291 291 293 298 301 299 298 300 279
231 224 224 227 234 229 234 233 233 233 239 244 247 250 245 245 252 256 258 263 267 270 269 271 272 275 276 278 281 285 287 288 289 290 292 294 297 298 294 294 289 289 301
229 225 223 219 228 236 239 234 238 238 236 241 242 244 248 252 253 259 263 264 266 270 276 277 276 277 280 281 280 281 285 285 288 289 292 295 296 294 294 302 296 293 295
247 247 230 234 229 237 240 234 239 242 244 242 244 241 246 252 254 261 265 265 265 266 269 274 280 281 282 283 281 284 286 287 287 288 289 291 293 288 290 293 292 286 285
237 242 237 230 238 233 237 237 245 242 244 245 247 248 250 254 255 261 265 265 265 269 271 273 278 279 281 277 281 285 287 286 286 287 285 287 289 294 292 297 290 283 277
261 245 242 236 236 238 237 243 251 252 241 250 246 254 251 254 256 259 266 264 262 261 267 273 274 280 281 285 286 285 285 288 289 289 286 286 290 295 298 295 294 289 285
245 250 261 246 233 232 236 246 249 247 245 242 247 246 250 255 256 258 269 264 265 265 266 270 277 279 280 283 285 284 286 284 284 286 285 285 288 290 292 290 292 295 289
265 258 251 241 238 242 242 244 246 245 238 241 249 257 258 258 256 260 260 260 261 263 267 271 275 279 279 284 287 285 285 279 281 283 282 282 282 285 288 287 292 296 296
269 265 259 256 254 250 252 249 247 250 247 246 249 252 257 255 253 252 251 254 257 262 269 269 274 275 277 282 284 281 283 280 287 282 281 282 285 286 286 287 289 291 285
272 266 263 259 255 257 258 262 261 258 255 251 249 253 255 252 251 250 244 248 255 262 272 273 268 274 282 277 275 280 285 286 284 284 289 282 286 288 290 291 290 291 293
270 268 265 263 256 253 254 257 260 260 262 261 261 258 256 253 253 259 248 253 260 267 270 267 263 278 285 295 292 288 289 286 286 286 285 287 289 293 298 297 284 276 283
271 267 264 260 255 252 252 254 255 256 261 264 264 263 267 264 263 265 263 260 266 268 266 271 278 284 287 293 296 294 297 288 294 291 285 292 283 294 296 286 282 288 310
275 270 263 259 256 255 254 252 252 252 252 251 253 256 263 265 261 260 260 263 261 263 272 273 267 268 280 288 287 287 275 290 282 285 288 289 289 285 298 314 328 319 309
273 274 269 259 255 256 253 247 250 249 248 244 244 246 256 260 263 264 262 260 259 262 265 269 271 279 285 283 278 272 276 279 289 288 286 292 319 331 322 311 310 310 312
271 271 274 269 258 252 251 249 247 247 249 247 249 251 255 260 264 261 260 261 261 265 264 264 267 273 270 285 286 277 273 292 295 303 322 321 312 310 311 314 315 314 314
270 271 268 267 263 256 249 248 250 253 255 255 254 250 248 252 252 260 269 260 240 234 245 252 254 241 278 284 286 287 289 302 313 304 306 307 310 311 312 311 313 314 312
274 272 270 266 261 257 255 254 256 253 250 246 253 263 259 258 255 262 264 245 243 270 257 249 269 296 278 280 286 291 299 305 304 303 303 303 308 313 314 313 312 311 311
277 276 268 272 263 261 252 250 247 245 253 262 269 272 273 270 268 270 265 272 250 247 252 281 322 293 295 301 314 319 317 309 304 305 307 309 311 312 312 314 316 318 318
278 274 266 266 267 263 251 245 247 241 251 261 268 281 279 271 266 253 255 262 275 283 293 295 282 296 303 307 311 304 301 304 305 303 305 308 308 312 316 318 319 320 323
274 270 258 262 250 259 250 251 250 249 251 267 271 283 276 269 256 251 244 244 256 266 275 288 301 307 309 307 306 308 309 306 305 305 306 309 313 315 317 319 319 320 320
275 268 244 254 248 249 250 245 246 252 259 262 267 267 243 234 232 231 231 234 253 267 271 282 293 301 309 309 307 306 304 303 304 305 309 313 316 318 319 320 319 320 323
264 255 246 244 251 243 250 248 243 255 266 253 258 241 203 205 207 219 238 245 257 265 281 290 293 299 301 301 300 296 294 294 303 309 314 316 318 318 319 318 319 320 320
252 231 228 239 248 244 240 238 249 252 251 253 264 235 209 203 197 215 235 247 260 275 281 287 295 300 303 300 299 293 293 298 304 309 312 315 317 319 319 318 318 319 318
Height
5889 5894 5896 5898 5900 5900 5899 5903 5907 5913 5907 5899 5906 5913 5915 5919 5921 5922 5924 5925 5926 5927 5927 5927 5928 5929 5930 5929 5929 5929 5930 5930 5929 5928 5927 5926 5925 5924 5924 5924 5922 5920 5920
5880 5885 5893 5896 5897 5898 5896 5899 5903 5907 5912 5908 5909 5905 5913 5914 5918 5919 5921 5922 5923 5923 5924 5925 5925 5926 5927 5926 5926 5926 5926 5926 5926 5925 5924 5922 5923 5921 5918 5894 5915 5918 5916
5876 5881 5886 5893 5895 5896 5895 5895 5899 5902 5905 5908 5909 5910 5908 5911 5914 5916 5917 5919 5919 5920 5917 5919 5921 5922 5923 5923 5923 5923 5923 5923 5923 5922 5921 5920 5918 5918 5916 5914 5913 5912 5911
5875 5879 5879 5886 5889 5892 5894 5893 5894 5898 5901 5902 5903 5904 5906 5910 5911 5912 5913 5915 5915 5917 5918 5918 5918 5919 5919 5920 5920 5920 5920 5919 5919 5918 5917 5917 5915 5913 5911 5908 5908 5909 5906
5868 5862 5869 5876 5884 5883 5889 5892 5892 5893 5895 5898 5900 5903 5906 5908 5909 5910 5910 5911 5912 5912 5913 5914 5914 5915 5915 5915 5915 5916 5915 5915 5914 5913 5913 5911 5910 5909 5908 5907 5905 5903 5901
5857 5856 5856 5876 5879 5879 5883 5886 5889 5890 5892 5895 5897 5900 5902 5904 5906 5906 5906 5907 5907 5908 5909 5909 5909 5910 5910 5910 5910 5911 5911 5910 5910 5908 5907 5905 5904 5902 5902 5900 5898 5897 5896
5844 5852 5822 5862 5868 5871 5878 5879 5882 5885 5888 5890 5893 5895 5897 5898 5900 5901 5901 5902 5903 5903 5904 5904 5904 5904 5905 5905 5904 5905 5905 5905 5903 5903 5901 5899 5898 5895 5893 5892 5891 5889 5887
5851 5852 5853 5858 5861 5866 5869 5872 5875 5876 5880 5883 5886 5888 5890 5891 5892 5894 5895 5896 5898 5898 5898 5898 5899 5898 5900 5899 5899 5899 5899 5897 5897 5896 5894 5892 5891 5889 5886 5884 5882 5880 5878
5842 5846 5847 5851 5855 5860 5863 5864 5867 5871 5873 5876 5878 5881 5884 5885 5886 5886 5887 5888 5891 5892 5892 5893 5892 5894 5893 5892 5894 5892 5893 5890 5888 5888 5886 5885 5883 5881 5879 5876 5875 5874 5872
5840 5841 5841 5846 5848 5852 5855 5857 5860 5864 5867 5869 5872 5874 5877 5877 5878 5879 5879 5880 5883 5885 5885 5886 5885 5886 5885 5885 5885 5885 5883 5884 5879 5879 5878 5877 5874 5872 5870 5868 5866 5864 5863
5832 5834 5837 5838 5840 5842 5845 5848 5853 5856 5859 5862 5864 5867 5868 5869 5869 5870 5871 5872 5874 5877 5878 5879 5877 5877 5878 5877 5876 5875 5873 5873 5873 5870 5868 5866 5864 5862 5861 5858 5856 5853 5850
5825 5825 5827 5829 5833 5835 5837 5840 5844 5847 5850 5852 5855 5858 5859 5859 5860 5861 5861 5864 5865 5868 5870 5870 5870 5870 5869 5869 5868 5866 5864 5862 5861 5859 5857 5855 5853 5852 5849 5847 5845 5842 5838
5819 5819 5820 5822 5825 5827 5829 5833 5835 5838 5841 5843 5845 5848 5848 5848 5849 5846 5850 5853 5856 5859 5859 5860 5861 5861 5859 5858 5857 5856 5854 5852 5851 5849 5847 5844 5842 5841 5838 5835 5832 5829 5825
5814 5813 5814 5815 5816 5819 5821 5824 5827 5830 5832 5835 5836 5837 5835 5837 5839 5839 5840 5844 5846 5848 5850 5850 5850 5850 5848 5848 5847 5846 5843 5841 5839 5837 5835 5833 5832 5831 5827 5824 5821 5818 5815
5806 5807 5807 5808 5809 5811 5813 5816 5819 5822 5824 5826 5827 5826 5826 5821 5816 5830 5832 5836 5837 5838 5839 5840 5840 5839 5840 5838 5837 5834 5831 5830 5828 5827 5825 5824 5822 5820 5817 5815 5812 5809 5807
5798 5799 5800 5800 5802 5804 5806 5808 5810 5813 5816 5818 5820 5820 5818 5819 5821 5822 5824 5826 5828 5830 5831 5830 5828 5829 5830 5828 5826 5825 5823 5821 5820 5818 5816 5814 5813 5810 5808 5806 5803 5802 5802
5791 5792 5792 5793 5794 5795 5797 5800 5802 5805 5807 5809 5810 5812 5813 5813 5813 5814 5814 5816 5818 5820 5821 5821 5820 5819 5819 5818 5817 5816 5815 5814 5813 5811 5809 5806 5805 5803 5802 5801 5799 5797 5794
5784 5784 5785 5785 5786 5788 5789 5791 5793 5796 5798 5800 5801 5802 5804 5804 5804 5805 5805 5806 5808 5809 5809 5809 5809 5810 5810 5810 5808 5806 5806 5805 5803 5803 5802 5800 5799 5798 5796 5794 5792 5790 5785
5777 5777 5778 5777 5778 5779 5781 5783 5786 5788 5790 5791 5792 5793 5794 5794 5795 5796 5796 5797 5798 5796 5796 5800 5803 5798 5803 5803 5803 5801 5801 5798 5797 5798 5797 5796 5794 5793 5790 5788 5785 5780 5777
5769 5770 5770 5770 5771 5771 5773 5775 5778 5780 5781 5783 5785 5785 5786 5787 5787 5788 5789 5790 5790 5794 5793 5793 5792 5795 5797 5796 5797 5796 5795 5793 5792 5792 5791 5790 5787 5785 5782 5779 5776 5772 5768
5762 5761 5762 5763 5763 5764 5765 5767 5770 5772 5774 5775 5776 5777 5777 5779 5780 5781 5782 5784 5786 5786 5786 5787 5788 5789 5789 5791 5789 5788 5787 5787 5787 5786 5785 5782 5780 5777 5774 5771 5767 5762 5755
5753 5752 5754 5755 5756 5756 5757 5759 5762 5765 5766 5767 5769 5771 5772 5773 5775 5777 5778 5778 5779 5780 5780 5782 5786 5785 5784 5784 5783 5784 5783 5781 5780 5779 5777 5775 5772 5769 5765 5760 5755 5750 5744
5745 5745 5746 5747 5749 5748 5749 5751 5756 5759 5760 5762 5763 5765 5767 5769 5770 5772 5773 5775 5776 5777 5778 5780 5779 5778 5779 5779 5778 5777 5776 5775 5775 5774 5771 5768 5764 5761 5756 5750 5745 5740 5731
5737 5737 5739 5740 5741 5743 5742 5744 5749 5751 5754 5756 5757 5759 5760 5763 5766 5768 5769 5771 5772 5774 5775 5775 5775 5775 5773 5772 5772 5772 5772 5770 5768 5766 5763 5760 5756 5751 5746 5740 5735 5729 5721
5726 5727 5729 5731 5732 5736 5738 5740 5744 5747 5748 5750 5751 5751 5752 5756 5760 5761 5764 5766 5768 5769 5769 5770 5770 5770 5769 5769 5769 5767 5765 5763 5762 5758 5754 5751 5747 5741 5735 5729 5722 5716 5711
5716 5719 5723 5723 5725 5730 5732 5734 5736 5740 5741 5743 5744 5746 5750 5753 5755 5758 5760 5762 5764 5765 5765 5766 5765 5765 5764 5763 5762 5760 5758 5755 5752 5749 5746 5741 5736 5730 5724 5718 5712 5707 5700